Weather reports worldwide

Advertisment
Larkhill, United Kingdom (3743): temperature & dewpoint: 18.08.2019 06:00:00 - 24.08.2019 06:00:00 (BST)Larkhill, United Kingdom (3743): temperature -20cm & temperature -100cm: 18.08.2019 06:00:00 - 24.08.2019 06:00:00 (BST)Larkhill, United Kingdom (3743): wind speed & gusts: 18.08.2019 06:00:00 - 24.08.2019 06:00:00 (BST)Larkhill, United Kingdom (3743): wind direction: 18.08.2019 06:00:00 - 24.08.2019 06:00:00 (BST)Larkhill, United Kingdom (3743): reduced air pressure: 18.08.2019 06:00:00 - 24.08.2019 06:00:00 (BST)Larkhill, United Kingdom (3743): visibility: 18.08.2019 06:00:00 - 24.08.2019 06:00:00 (BST)Larkhill, United Kingdom (3743): precipitation: 18.08.2019 06:00:00 - 24.08.2019 06:00:00 (BST)
Date & Time tt [°C] td [°C] tt -20cm [°C] tt -100cm [°C] ff [km/h] ff [kn] fx [km/h] fx [kn] dd ppp [hPa] vv [km] rr [mm]
24.08.2019 06:00:00 11,1 9,5 - - 4 2 - - NNE 1020,2 40 -
24.08.2019 05:00:00 10,9 8,8 - - 4 2 - - NNE 1020,4 40 0,0
24.08.2019 04:00:00 11,1 9,3 - - 4 2 - - NE 1020,7 35 0,0
24.08.2019 03:00:00 11,4 9,7 - - 4 2 - - NE 1021,0 28 0,0
24.08.2019 02:00:00 11,8 9,9 - - 2 1 - - E 1021,3 26 0,0
24.08.2019 01:00:00 12,6 10,5 - - 2 1 - - NE 1021,5 30 0,0
24.08.2019 00:00:00 14,4 11,0 - - 2 1 - - ESE 1021,5 30 0,0
23.08.2019 23:00:00 15,2 11,6 - - 0 0 - - N 1021,7 29 0,0
23.08.2019 22:00:00 17,2 11,9 - - 5 3 - - SSE 1021,8 35 0,0
23.08.2019 21:00:00 18,3 11,7 - - 5 3 - - S 1022,0 9 0,0
23.08.2019 20:00:00 20,3 11,2 - - 5 3 - - SSW 1021,9 10 0,0
23.08.2019 19:00:00 22,3 11,1 - - 8 4 - - S 1021,9 45 0,0
23.08.2019 18:00:00 23,0 11,6 - - 11 6 - - S 1022,0 50 0,0
23.08.2019 17:00:00 24,1 12,1 - - 9 5 - - S 1022,3 40 0,0
23.08.2019 16:00:00 24,8 9,5 - - 9 5 - - S 1022,6 40 0,0
23.08.2019 15:00:00 24,3 12,5 - - 9 5 - - SSW 1023,2 40 0,0
23.08.2019 14:00:00 23,0 14,5 - - 9 5 - - S 1023,7 40 0,0
23.08.2019 13:00:00 22,0 14,8 - - 9 5 - - S 1024,1 25 0,0
23.08.2019 12:00:00 21,5 15,4 - - 8 4 - - SSE 1024,5 30 0,0
23.08.2019 11:00:00 19,0 15,1 - - 8 4 - - ESE 1025,0 25 0,0
23.08.2019 10:00:00 17,1 15,6 18,0 16,7 5 3 - - ESE 1025,5 18 0,0
23.08.2019 09:00:00 14,1 13,9 - - 4 2 - - E 1025,7 0,4 0,0
23.08.2019 08:00:00 12,3 12,2 - - 2 1 - - E 1025,9 0,2 0,0
23.08.2019 07:00:00 10,5 10,1 - - 2 1 - - NE 1025,6 0,5 0,0
23.08.2019 06:00:00 12,1 11,9 - - 2 1 - - S 1025,4 0,1 0,0
23.08.2019 05:00:00 12,2 11,9 - - 2 1 - - S 1025,3 0,2 0,0
23.08.2019 04:00:00 10,9 10,0 - - 4 2 - - ENE 1025,7 0,1 0,0
23.08.2019 03:00:00 12,5 11,8 - - 2 1 - - NW 1025,6 3,2 0,0
23.08.2019 02:00:00 14,0 13,2 - - 4 2 - - SSW 1025,6 14 0,0
23.08.2019 01:00:00 14,1 12,9 - - 2 1 - - SSE 1025,9 16 0,0
23.08.2019 00:00:00 14,9 13,8 - - 4 2 - - WSW 1025,9 24 0,0
22.08.2019 23:00:00 15,4 13,5 - - 5 3 - - SSW 1025,7 26 0,0
22.08.2019 22:00:00 16,2 13,8 - - 5 3 - - W 1025,6 35 0,0
22.08.2019 21:00:00 17,2 13,8 - - 9 5 - - WSW 1025,4 35 0,0
22.08.2019 20:00:00 18,8 13,8 - - 9 5 - - WSW 1024,8 40 0,0
22.08.2019 19:00:00 19,7 13,8 - - 13 7 - - WSW 1024,5 45 0,0
22.08.2019 18:00:00 20,7 13,8 - - 13 7 - - SW 1024,3 50 0,0
22.08.2019 17:00:00 20,9 13,5 - - 11 6 - - SW 1024,4 40 0,0
22.08.2019 16:00:00 21,7 12,9 - - 15 8 - - WSW 1024,3 40 0,0
22.08.2019 15:00:00 21,2 12,9 - - 13 7 - - WSW 1024,5 50 0,0
22.08.2019 14:00:00 21,1 13,2 - - 13 7 - - SW 1024,7 50 0,0
22.08.2019 13:00:00 20,3 12,9 - - 13 7 - - SW 1025,0 40 0,0
22.08.2019 12:00:00 19,8 11,8 - - 15 8 - - SW 1025,0 50 0,0
22.08.2019 11:00:00 19,1 13,1 - - 13 7 - - SW 1025,0 35 0,0
22.08.2019 10:00:00 16,7 12,0 17,7 16,7 15 8 - - WSW 1025,5 35 0,0
22.08.2019 09:00:00 15,5 12,3 - - 13 7 - - SW 1025,4 25 0,0
22.08.2019 08:00:00 13,2 12,2 - - 5 3 - - SSW 1025,0 12 0,0
22.08.2019 07:00:00 11,4 10,8 - - 8 4 - - SW 1024,8 10 0,0
22.08.2019 06:00:00 11,4 10,9 - - 8 4 - - SW 1024,6 11 0,0
22.08.2019 05:00:00 11,7 11,1 - - 9 5 - - WSW 1024,6 12 0,0
22.08.2019 04:00:00 11,4 10,9 - - 9 5 - - WSW 1024,9 12 0,0
22.08.2019 03:00:00 10,9 10,4 - - 4 2 - - WSW 1025,2 11 0,0
22.08.2019 02:00:00 11,0 10,4 - - 4 2 - - SW 1025,2 10 0,0
22.08.2019 01:00:00 11,6 10,8 - - 4 2 - - SSW 1025,4 13 0,0
22.08.2019 00:00:00 12,4 11,0 - - 4 2 - - SSW 1025,5 17 0,0
21.08.2019 23:00:00 12,8 10,8 - - 4 2 - - SW 1025,8 23 0,0
21.08.2019 22:00:00 13,5 10,8 - - 5 3 - - SSW 1025,9 25 0,0
21.08.2019 21:00:00 14,4 10,3 - - 5 3 - - SW 1025,6 29 0,0
21.08.2019 20:00:00 16,5 10,1 - - 8 4 - - SW 1025,1 30 0,0
21.08.2019 19:00:00 17,8 9,8 - - 9 5 - - SSW 1025,0 35 0,0
21.08.2019 18:00:00 19,6 8,6 - - 15 8 - - SW 1025,0 35 0,0
21.08.2019 17:00:00 20,5 9,6 - - 15 8 - - SSW 1025,1 40 0,0
21.08.2019 16:00:00 20,4 10,6 - - 11 6 - - S 1025,3 35 0,0
21.08.2019 15:00:00 18,9 10,8 - - 11 6 - - SSW 1025,8 35 0,0
21.08.2019 14:00:00 18,8 11,0 - - 11 6 - - SSW 1026,4 35 0,0
21.08.2019 13:00:00 18,6 10,5 - - 11 6 - - S 1026,8 35 0,0
21.08.2019 12:00:00 18,6 11,0 - - 9 5 - - S 1027,0 35 0,0
21.08.2019 11:00:00 18,0 12,2 - - 8 4 - - S 1027,3 35 0,0
21.08.2019 10:00:00 16,2 13,1 17,7 16,7 5 3 - - SSW 1027,5 25 0,0
21.08.2019 09:00:00 12,5 11,2 - - 5 3 - - S 1027,9 15 0,0
21.08.2019 08:00:00 11,4 10,8 - - 2 1 - - SSW 1027,9 15 0,0
21.08.2019 07:00:00 9,0 8,6 - - 2 1 - - SSE 1027,7 12 0,0
21.08.2019 06:00:00 8,6 8,0 - - 2 1 - - N 1027,5 13 0,0
21.08.2019 05:00:00 10,8 10,1 - - 5 3 - - WSW 1027,3 22 0,0
21.08.2019 04:00:00 9,7 7,9 - - 4 2 - - WSW 1027,4 20 0,0
21.08.2019 03:00:00 10,8 9,6 - - 5 3 - - SW 1027,3 22 0,0
21.08.2019 02:00:00 11,1 9,7 - - 5 3 - - SW 1027,2 24 0,0
21.08.2019 01:00:00 11,2 9,2 - - 2 1 - - SW 1027,3 28 0,0
21.08.2019 00:00:00 12,0 9,5 - - 4 2 - - SW 1027,2 10 0,0
20.08.2019 23:00:00 12,1 9,3 - - 5 3 - - SW 1027,3 30 0,0
20.08.2019 22:00:00 13,6 9,5 - - 2 1 - - WSW 1027,0 30 0,0
20.08.2019 21:00:00 15,0 9,2 - - 9 5 - - W 1026,6 35 0,0
20.08.2019 20:00:00 16,4 8,2 - - 9 5 - - W 1026,0 40 0,0
20.08.2019 19:00:00 18,3 7,1 - - 13 7 - - W 1025,5 45 0,0
20.08.2019 18:00:00 18,8 5,3 - - 16 9 - - W 1024,9 45 0,0
20.08.2019 17:00:00 19,3 6,0 - - 16 9 - - W 1024,6 35 0,0
20.08.2019 16:00:00 19,5 7,4 - - 13 7 - - W 1024,5 35 0,0
20.08.2019 15:00:00 19,3 7,3 - - 18 10 - - W 1024,2 35 0,0
20.08.2019 14:00:00 18,2 6,6 - - 18 10 - - W 1024,1 40 0,0
20.08.2019 13:00:00 18,6 7,7 - - 16 9 - - WNW 1023,8 40 0,0
20.08.2019 12:00:00 18,0 7,1 - - 15 8 - - W 1023,8 35 0,0
20.08.2019 11:00:00 16,7 8,8 - - 13 7 - - W 1023,5 35 0,0
20.08.2019 10:00:00 15,4 8,9 17,7 16,7 16 9 - - W 1023,3 30 0,0
20.08.2019 09:00:00 14,2 10,2 - - 15 8 - - W 1022,7 25 0,0
20.08.2019 08:00:00 12,1 10,2 - - 11 6 - - WSW 1022,1 20 0,0
20.08.2019 07:00:00 10,2 9,5 - - 11 6 - - WSW 1021,5 15 0,0
20.08.2019 06:00:00 10,3 9,4 - - 11 6 - - WSW 1020,9 23 0,0
20.08.2019 05:00:00 11,3 10,1 - - 11 6 - - WSW 1020,4 13 0,0
20.08.2019 04:00:00 11,2 9,8 - - 13 7 - - WSW 1020,0 29 0,0
20.08.2019 03:00:00 10,7 9,3 - - 9 5 - - WSW 1019,8 30 0,0
20.08.2019 02:00:00 11,0 9,3 - - 11 6 - - WSW 1019,8 30 0,0
20.08.2019 01:00:00 11,1 9,2 - - 8 4 - - WSW 1020,0 30 0,0
20.08.2019 00:00:00 11,6 9,4 - - 8 4 - - SW 1019,8 35 0,0
19.08.2019 23:00:00 12,0 9,2 - - 5 3 - - SW 1019,4 40 0,0
19.08.2019 22:00:00 13,1 9,8 - - 8 4 - - WSW 1019,0 35 0,0
19.08.2019 21:00:00 14,4 10,3 - - 9 5 - - W 1018,3 35 0,0
19.08.2019 20:00:00 16,0 9,9 - - 9 5 - - W 1017,5 40 0,0
19.08.2019 19:00:00 17,5 9,9 - - 13 7 - - W 1016,9 45 0,0
19.08.2019 18:00:00 18,4 9,4 - - 16 9 - - W 1016,4 45 0,0
19.08.2019 17:00:00 18,6 9,9 - - 21 11 - - W 1016,0 40 0,0
19.08.2019 16:00:00 18,2 12,2 - - 18 10 - - WSW 1015,9 30 0,0
19.08.2019 15:00:00 17,6 12,9 - - 18 10 54 29 W 1015,6 30 0,4
19.08.2019 14:00:00 17,9 12,5 - - 18 10 - - W 1015,3 40 0,6
19.08.2019 13:00:00 17,3 12,2 - - 18 10 - - W 1014,8 30 0,0
19.08.2019 12:00:00 14,2 12,1 - - 16 9 - - WNW 1014,9 10 0,4
19.08.2019 11:00:00 17,0 12,6 - - 16 9 - - WSW 1013,9 30 0,0
19.08.2019 10:00:00 15,8 12,0 18,0 16,7 16 9 - - WSW 1013,6 25 0,0
19.08.2019 09:00:00 14,8 11,8 - - 16 9 - - WSW 1013,0 20 0,0
19.08.2019 08:00:00 13,7 11,4 - - 13 7 - - WSW 1012,7 16 0,0
19.08.2019 07:00:00 11,9 10,4 - - 9 5 - - SSW 1012,4 12 0,0
19.08.2019 06:00:00 11,4 10,2 - - 8 4 - - SW 1011,9 22 0,0
19.08.2019 05:00:00 11,4 10,2 - - 9 5 - - SW 1011,6 23 0,0
19.08.2019 04:00:00 11,5 10,1 - - 11 6 - - SW 1011,0 0,1 0,0
19.08.2019 03:00:00 11,9 10,2 - - 9 5 - - SW 1011,0 0,3 0,0
19.08.2019 02:00:00 12,3 10,2 - - 11 6 - - SW 1010,9 0,1 0,0
19.08.2019 01:00:00 12,4 10,5 - - 9 5 - - SW 1010,6 0,6 0,0
19.08.2019 00:00:00 12,4 10,4 - - 9 5 - - SW 1010,4 0,4 0,0
18.08.2019 23:00:00 12,6 10,3 - - 11 6 - - SW 1010,2 30 0,0
18.08.2019 22:00:00 13,0 10,1 - - 9 5 - - SW 1009,6 30 0,0
18.08.2019 21:00:00 13,6 11,3 - - 5 3 - - SW 1008,9 30 0,0
18.08.2019 20:00:00 15,1 12,6 - - 9 5 - - SW 1008,1 40 0,0
18.08.2019 19:00:00 15,9 13,2 - - 15 8 - - SW 1007,7 40 0,0
18.08.2019 18:00:00 14,7 12,9 - - 11 6 - - W 1007,6 1,6 3,4
18.08.2019 17:00:00 19,7 11,4 - - 18 10 - - WSW 1006,6 50 0,0
18.08.2019 16:00:00 18,3 10,6 - - 15 8 - - WSW 1006,6 50 0,0
18.08.2019 15:00:00 17,7 9,9 - - 18 10 - - W 1006,3 65 0,0
18.08.2019 14:00:00 17,9 10,5 - - 22 12 - - WSW 1005,8 55 0,0
18.08.2019 13:00:00 18,2 10,3 - - 21 11 - - W 1005,2 65 0,0
18.08.2019 12:00:00 18,3 11,0 - - 18 10 - - WSW 1004,8 24 0,0
18.08.2019 11:00:00 16,3 12,1 - - 16 9 - - WSW 1004,7 50 0,0
18.08.2019 10:00:00 15,5 13,0 18,0 16,7 9 5 - - SW 1003,8 40 0,0
18.08.2019 09:00:00 13,6 12,6 - - 13 7 - - WSW 1003,8 15 1,2
18.08.2019 08:00:00 14,1 12,5 - - 11 6 - - SW 1003,3 28 0,0
18.08.2019 07:00:00 13,2 12,2 - - 5 3 - - SW 1002,9 26 0,0
18.08.2019 06:00:00 13,2 11,7 - - 4 2 - - SSW 1003,0 28 0,0

tt = temperature
td = dewpoint
tt -20cm = temperature -20cm
tt -100cm = temperature -100cm
ff = wind speed
fx = gusts
dd = wind direction
ppp = reduced air pressure
vv = visibility
rr = precipitation

Next stations